Hourly Data Report for September 07, 2017

All times are specified in Local Standard Time (LST). Add 1 hour to adjust for Daylight Saving Time where and when it is observed.

ST. STEPHEN
NEW BRUNSWICK

45°12'36.600" N
67°15'10.300" W
26.10 m
8104935
71607
WSS

Download Data

Hourly Data (September 2017)
Hourly Data Report for September 7, 2017
Temp Definition
°C
Dew Point Temp Definition
°C
Rel Hum Definition
%
Wind Dir Definition
10's deg

Wind Spd Definition
km/h
Visibility Definition
km
Stn Press Definition
kPa
Hmdx Definition


Wind Chill Definition


Weather Definition


TIME
00:00 18.8 18.0 95 16 8   101.04     LegendNANA
01:00 18.5 17.7 95 11 4   100.96     LegendNANA
02:00 19.1 18.4 96 15 10   100.92     LegendNANA
03:00 19.0 18.3 96 15 5   100.85     LegendNANA
04:00 17.8 17.0 95 10 7   100.74     LegendNANA
05:00 16.9 16.3 96 10 5   100.62     LegendNANA
06:00 16.6 16.0 96 10 4   100.62     LegendNANA
07:00 16.8 16.2 97 10 7   100.50     LegendNANA
08:00 17.3 16.8 97 10 7   100.39     LegendNANA
09:00 20.0 19.4 96 17 16   100.32 27   LegendNANA
10:00 20.7 19.1 91 16 15   100.26 28   LegendNANA
11:00 20.4 19.3 94 18 23   100.26 27   LegendNANA
12:00 19.9 18.5 92 18 14   100.19     LegendNANA
13:00 19.8 17.9 89 19 14   100.24     LegendNANA
14:00 19.8 17.8 88 19 11   100.28     LegendNANA
15:00 21.6 18.0 80 19 12   100.27 28   LegendNANA
16:00 22.1 16.3 70 22 16   100.30 27   LegendNANA
17:00 21.9 15.0 65 21 14   100.35 26   LegendNANA
18:00 20.2 15.5 75 19 10   100.42     LegendNANA
19:00 18.6 14.9 79 20 12   100.46     LegendNANA
20:00 16.9 14.8 88 19 7   100.55     LegendNANA
21:00 15.8 14.5 92 18 6   100.62     LegendNANA
22:00 15.2 14.2 94 19 4   100.66     LegendNANA
23:00 14.7 13.7 94 26 2   100.67     LegendNANA

Notes on Data Quality.

Legend

  • E = Estimated
  • M = Missing
  • NA = Not Available
  • ‡ = Partner data that is not subject to review by the National Climate Archives
Date modified: